Location: G�kdere
(37.0328°N, 30.9000°E)
Time: 21:46:38
(UTC+00:00)

Meteor 1-5 Rocket - Pass Details

Date: 03 March 2021
Orbit: 790 x 914 km, 81.2° (Epoch: 19 April)

Event Time Altitude Azimuth Distance (km) Brightness Sun altitude
Rises 16:45:50 0° 170° (S) 3,274 7.2 -11.4°
Reaches altitude 10° 16:48:16 10° 164° (SSE) 2,356 6.4 -11.9°
Maximum altitude 16:53:17 45° 93° (E) 1,096 4.4 -12.9°
Drops below altitude 10° 16:58:26 10° 22° (NNE) 2,424 6.4 -13.9°
Sets 17:00:57 0° 16° (NNE) 3,380 7.2 -14.4°
